Time,TemperatureF,DewpointF,PressureIn,WindDirection,WindDirectionDegrees,WindSpeedMPH,WindSpeedGustMPH,Humidity,HourlyPrecipIn,Conditions,Clouds,dailyrainin,SoftwareType,DateUTC
2013-02-14 00:11:00,42.6,42.0,30.06,NNW,346,0.0,-999.0,97,-99.99,,,0.00,weatherlink.com 1.10,2013-02-14 06:11:00,
2013-02-14 00:26:00,42.4,42.0,30.06,NNW,347,0.0,-999.0,98,-99.99,,,0.00,weatherlink.com 1.10,2013-02-14 06:26:00,
2013-02-14 00:42:00,42.3,42.0,30.05,North,350,0.0,-999.0,98,-99.99,,,0.00,weatherlink.com 1.10,2013-02-14 06:42:00,
2013-02-14 00:56:00,42.1,42.0,30.06,NNE,19,0.0,-999.0,98,-99.99,,,0.00,weatherlink.com 1.10,2013-02-14 06:56:00,
2013-02-14 01:11:00,42.0,42.0,30.07,NNE,26,0.0,-999.0,98,-99.99,,,0.00,weatherlink.com 1.10,2013-02-14 07:11:00,
2013-02-14 01:26:00,41.6,41.0,30.07,NNE,26,0.0,-999.0,98,-99.99,,,0.00,weatherlink.com 1.10,2013-02-14 07:26:00,
2013-02-14 01:41:00,41.1,41.0,30.07,NNE,26,0.0,-999.0,98,-99.99,,,0.00,weatherlink.com 1.10,2013-02-14 07:41:00,
2013-02-14 01:55:00,40.9,40.0,30.06,NNE,26,0.0,-999.0,98,-99.99,,,0.00,weatherlink.com 1.10,2013-02-14 07:55:00,
2013-02-14 02:11:00,40.8,40.0,30.06,NNE,26,0.0,-999.0,98,-99.99,,,0.00,weatherlink.com 1.10,2013-02-14 08:11:00,
2013-02-14 02:26:00,40.4,40.0,30.06,NNE,26,1.0,-999.0,98,-99.99,,,0.00,weatherlink.com 1.10,2013-02-14 08:26:00,
2013-02-14 02:41:00,40.2,40.0,30.06,NNE,19,0.0,-999.0,98,-99.99,,,0.00,weatherlink.com 1.10,2013-02-14 08:41:00,
2013-02-14 02:56:00,40.3,40.0,30.06,North,5,1.0,-999.0,99,-99.99,,,0.00,weatherlink.com 1.10,2013-02-14 08:56:00,
2013-02-14 03:11:00,40.6,40.0,30.09,North,5,0.0,-999.0,99,-99.99,,,0.00,weatherlink.com 1.10,2013-02-14 09:11:00,
2013-02-14 03:27:00,40.7,41.0,30.08,North,5,0.0,-999.0,99,-99.99,,,0.00,weatherlink.com 1.10,2013-02-14 09:27:00,
2013-02-14 03:41:00,40.9,41.0,30.07,North,5,0.0,-999.0,99,-99.99,,,0.00,weatherlink.com 1.10,2013-02-14 09:41:00,
2013-02-14 03:57:00,41.0,41.0,30.07,North,355,0.0,-999.0,99,-99.99,,,0.00,weatherlink.com 1.10,2013-02-14 09:57:00,
2013-02-14 04:12:00,41.1,41.0,30.06,NNE,33,0.0,-999.0,99,-99.99,,,0.00,weatherlink.com 1.10,2013-02-14 10:12:00,
2013-02-14 04:27:00,41.5,41.0,30.07,North,351,0.0,-999.0,99,-99.99,,,0.00,weatherlink.com 1.10,2013-02-14 10:27:00,
2013-02-14 04:42:00,41.6,41.0,30.07,North,350,0.0,-999.0,99,-99.99,,,0.00,weatherlink.com 1.10,2013-02-14 10:42:00,
2013-02-14 04:57:00,41.7,41.0,30.08,North,350,0.0,-999.0,98,-99.99,,,0.00,weatherlink.com 1.10,2013-02-14 10:57:00,
2013-02-14 05:12:00,41.7,41.0,30.08,North,355,0.0,-999.0,98,-99.99,,,0.00,weatherlink.com 1.10,2013-02-14 11:12:00,
2013-02-14 05:27:00,41.6,41.0,30.08,North,350,0.0,-999.0,98,-99.99,,,0.00,weatherlink.com 1.10,2013-02-14 11:27:00,
2013-02-14 05:42:00,41.6,41.0,30.09,ENE,61,0.0,-999.0,98,-99.99,,,0.00,weatherlink.com 1.10,2013-02-14 11:42:00,
2013-02-14 05:57:00,41.4,41.0,30.09,ENE,61,0.0,-999.0,98,-99.99,,,0.00,weatherlink.com 1.10,2013-02-14 11:57:00,
2013-02-14 06:12:00,41.1,41.0,30.10,ENE,61,0.0,-999.0,98,-99.99,,,0.00,weatherlink.com 1.10,2013-02-14 12:12:00,
2013-02-14 06:27:00,41.2,41.0,30.11,ENE,61,0.0,-999.0,98,-99.99,,,0.00,weatherlink.com 1.10,2013-02-14 12:27:00,
2013-02-14 06:42:00,41.1,41.0,30.12,NNE,31,0.0,-999.0,98,-99.99,,,0.00,weatherlink.com 1.10,2013-02-14 12:42:00,
2013-02-14 06:57:00,41.0,41.0,30.12,NNE,31,0.0,-999.0,98,-99.99,,,0.00,weatherlink.com 1.10,2013-02-14 12:57:00,
2013-02-14 07:12:00,41.0,41.0,30.13,NNE,31,0.0,-999.0,99,-99.99,,,0.00,weatherlink.com 1.10,2013-02-14 13:12:00,
2013-02-14 07:27:00,41.1,41.0,30.15,NNE,31,0.0,-999.0,99,-99.99,,,0.00,weatherlink.com 1.10,2013-02-14 13:27:00,
2013-02-14 07:42:00,41.4,41.0,30.15,NNE,31,0.0,-999.0,99,-99.99,,,0.00,weatherlink.com 1.10,2013-02-14 13:42:00,
2013-02-14 07:57:00,42.0,42.0,30.15,NNE,21,0.0,-999.0,99,-99.99,,,0.00,weatherlink.com 1.10,2013-02-14 13:57:00,
2013-02-14 08:12:00,42.4,42.0,30.14,ENE,71,0.0,-999.0,99,-99.99,,,0.00,weatherlink.com 1.10,2013-02-14 14:12:00,
2013-02-14 08:27:00,42.6,42.0,30.15,NE,46,0.0,-999.0,99,-99.99,,,0.00,weatherlink.com 1.10,2013-02-14 14:27:00,
2013-02-14 08:42:00,43.2,43.0,30.15,East,87,0.0,-999.0,98,-99.99,,,0.00,weatherlink.com 1.10,2013-02-14 14:42:00,
2013-02-14 08:57:00,44.2,43.0,30.16,East,90,0.0,-999.0,97,-99.99,,,0.00,weatherlink.com 1.10,2013-02-14 14:57:00,
2013-02-14 09:12:00,45.1,44.0,30.17,East,88,1.0,-999.0,96,-99.99,,,0.00,weatherlink.com 1.10,2013-02-14 15:12:00,
2013-02-14 09:26:00,46.0,44.0,30.16,East,86,4.0,-999.0,92,-99.99,,,0.00,weatherlink.com 1.10,2013-02-14 15:26:00,
2013-02-14 09:42:00,47.0,45.0,30.16,East,85,0.0,-999.0,91,-99.99,,,0.00,weatherlink.com 1.10,2013-02-14 15:42:00,
2013-02-14 09:57:00,47.9,45.0,30.15,East,85,1.0,-999.0,88,-99.99,,,0.00,weatherlink.com 1.10,2013-02-14 15:57:00,
2013-02-14 10:12:00,48.5,45.0,30.15,East,85,0.0,-999.0,86,-99.99,,,0.00,weatherlink.com 1.10,2013-02-14 16:12:00,
2013-02-14 10:27:00,49.4,45.0,30.15,East,80,0.0,-999.0,85,-99.99,,,0.00,weatherlink.com 1.10,2013-02-14 16:27:00,
2013-02-14 10:42:00,50.6,46.0,30.15,ENE,78,2.0,-999.0,83,-99.99,,,0.00,weatherlink.com 1.10,2013-02-14 16:42:00,
2013-02-14 10:57:00,51.4,46.0,30.15,East,81,0.0,-999.0,82,-99.99,,,0.00,weatherlink.com 1.10,2013-02-14 16:57:00,
2013-02-14 11:12:00,52.5,47.0,30.14,ESE,113,0.0,-999.0,80,-99.99,,,0.00,weatherlink.com 1.10,2013-02-14 17:12:00,
2013-02-14 11:27:00,53.7,47.0,30.14,NNW,346,0.0,-999.0,77,-99.99,,,0.00,weatherlink.com 1.10,2013-02-14 17:27:00,
2013-02-14 11:42:00,54.8,47.0,30.13,NE,34,0.0,-999.0,74,-99.99,,,0.00,weatherlink.com 1.10,2013-02-14 17:42:00,
2013-02-14 11:58:00,56.1,48.0,30.12,ESE,109,0.0,-999.0,73,-99.99,,,0.00,weatherlink.com 1.10,2013-02-14 17:58:00,
2013-02-14 12:12:00,57.0,47.0,30.12,ESE,110,0.0,-999.0,70,-99.99,,,0.00,weatherlink.com 1.10,2013-02-14 18:12:00,
2013-02-14 12:29:00,57.7,46.0,30.11,NW,310,1.0,-999.0,66,-99.99,,,0.00,weatherlink.com 1.10,2013-02-14 18:29:00,
2013-02-14 12:42:00,58.0,46.0,30.10,SE,140,0.0,-999.0,65,-99.99,,,0.00,weatherlink.com 1.10,2013-02-14 18:42:00,
2013-02-14 12:57:00,57.9,48.0,30.09,SSE,159,4.0,-999.0,69,-99.99,,,0.00,weatherlink.com 1.10,2013-02-14 18:57:00,
2013-02-14 13:12:00,57.2,47.0,30.08,SSW,202,1.0,-999.0,68,-99.99,,,0.00,weatherlink.com 1.10,2013-02-14 19:12:00,
2013-02-14 13:27:00,57.1,49.0,30.08,SSE,163,0.0,-999.0,74,-99.99,,,0.00,weatherlink.com 1.10,2013-02-14 19:27:00,
2013-02-14 13:42:00,57.0,48.0,30.07,SE,130,0.0,-999.0,71,-99.99,,,0.00,weatherlink.com 1.10,2013-02-14 19:42:00,
2013-02-14 13:58:00,57.0,47.0,30.07,South,174,0.0,-999.0,70,-99.99,,,0.00,weatherlink.com 1.10,2013-02-14 19:58:00,
2013-02-14 14:13:00,56.9,47.0,30.06,SW,225,4.0,-999.0,69,-99.99,,,0.00,weatherlink.com 1.10,2013-02-14 20:13:00,
2013-02-14 14:28:00,57.3,47.0,30.06,SW,219,0.0,-999.0,69,-99.99,,,0.00,weatherlink.com 1.10,2013-02-14 20:28:00,
2013-02-14 14:43:00,57.5,48.0,30.06,SW,219,1.0,-999.0,70,-99.99,,,0.00,weatherlink.com 1.10,2013-02-14 20:43:00,
2013-02-14 14:58:00,57.7,48.0,30.06,SSE,155,6.0,-999.0,71,-99.99,,,0.00,weatherlink.com 1.10,2013-02-14 20:58:00,
2013-02-14 15:13:00,57.6,48.0,30.07,SSW,211,1.0,-999.0,70,-99.99,,,0.00,weatherlink.com 1.10,2013-02-14 21:13:00,
2013-02-14 15:28:00,56.9,47.0,30.07,SSW,209,0.0,-999.0,70,-99.99,,,0.00,weatherlink.com 1.10,2013-02-14 21:28:00,
2013-02-14 15:43:00,57.4,48.0,30.06,South,179,5.0,-999.0,72,-99.99,,,0.00,weatherlink.com 1.10,2013-02-14 21:43:00,
2013-02-14 15:58:00,57.3,48.0,30.06,SSW,207,2.0,-999.0,71,-99.99,,,0.00,weatherlink.com 1.10,2013-02-14 21:58:00,
2013-02-14 16:13:00,56.9,48.0,30.06,SE,140,1.0,-999.0,71,-99.99,,,0.00,weatherlink.com 1.10,2013-02-14 22:13:00,
2013-02-14 16:28:00,56.4,48.0,30.06,SSE,163,6.0,-999.0,73,-99.99,,,0.00,weatherlink.com 1.10,2013-02-14 22:28:00,
2013-02-14 16:43:00,56.5,48.0,30.06,South,180,1.0,-999.0,72,-99.99,,,0.00,weatherlink.com 1.10,2013-02-14 22:43:00,
2013-02-14 16:58:00,55.6,47.0,30.06,SW,226,0.0,-999.0,73,-99.99,,,0.00,weatherlink.com 1.10,2013-02-14 22:58:00,
2013-02-14 17:13:00,54.6,47.0,30.06,South,184,0.0,-999.0,75,-99.99,,,0.00,weatherlink.com 1.10,2013-02-14 23:13:00,
2013-02-14 17:28:00,53.7,47.0,30.07,South,184,0.0,-999.0,77,-99.99,,,0.00,weatherlink.com 1.10,2013-02-14 23:28:00,
2013-02-14 17:43:00,52.6,47.0,30.07,South,184,0.0,-999.0,80,-99.99,,,0.00,weatherlink.com 1.10,2013-02-14 23:43:00,
2013-02-14 17:58:00,51.7,46.0,30.07,South,184,0.0,-999.0,82,-99.99,,,0.00,weatherlink.com 1.10,2013-02-14 23:58:00,
2013-02-14 18:13:00,50.5,46.0,30.07,South,184,0.0,-999.0,85,-99.99,,,0.00,weatherlink.com 1.10,2013-02-15 00:13:00,
2013-02-14 18:28:00,49.6,46.0,30.08,South,184,0.0,-999.0,87,-99.99,,,0.00,weatherlink.com 1.10,2013-02-15 00:28:00,
2013-02-14 18:43:00,48.8,46.0,30.08,South,184,0.0,-999.0,89,-99.99,,,0.00,weatherlink.com 1.10,2013-02-15 00:43:00,
2013-02-14 18:58:00,48.1,46.0,30.08,South,184,0.0,-999.0,91,-99.99,,,0.00,weatherlink.com 1.10,2013-02-15 00:58:00,
2013-02-14 19:13:00,47.4,45.0,30.08,South,184,0.0,-999.0,92,-99.99,,,0.00,weatherlink.com 1.10,2013-02-15 01:13:00,
2013-02-14 19:28:00,46.9,45.0,30.09,South,184,0.0,-999.0,93,-99.99,,,0.00,weatherlink.com 1.10,2013-02-15 01:28:00,
2013-02-14 19:43:00,46.3,44.0,30.09,South,184,0.0,-999.0,93,-99.99,,,0.00,weatherlink.com 1.10,2013-02-15 01:43:00,
2013-02-14 19:58:00,46.0,44.0,30.09,South,180,0.0,-999.0,94,-99.99,,,0.00,weatherlink.com 1.10,2013-02-15 01:58:00,
2013-02-14 20:13:00,45.6,44.0,30.09,South,180,0.0,-999.0,95,-99.99,,,0.00,weatherlink.com 1.10,2013-02-15 02:13:00,
2013-02-14 20:29:00,45.3,44.0,30.10,South,180,0.0,-999.0,95,-99.99,,,0.00,weatherlink.com 1.10,2013-02-15 02:29:00,
2013-02-14 20:44:00,44.9,44.0,30.10,South,180,0.0,-999.0,95,-99.99,,,0.00,weatherlink.com 1.10,2013-02-15 02:44:00,
2013-02-14 20:59:00,44.5,43.0,30.09,South,180,0.0,-999.0,95,-99.99,,,0.00,weatherlink.com 1.10,2013-02-15 02:59:00,
2013-02-14 21:14:00,44.1,43.0,30.10,South,180,0.0,-999.0,96,-99.99,,,0.00,weatherlink.com 1.10,2013-02-15 03:14:00,
2013-02-14 21:29:00,43.8,43.0,30.10,South,180,0.0,-999.0,96,-99.99,,,0.00,weatherlink.com 1.10,2013-02-15 03:29:00,
2013-02-14 21:44:00,43.5,43.0,30.10,South,180,0.0,-999.0,96,-99.99,,,0.00,weatherlink.com 1.10,2013-02-15 03:44:00,
2013-02-14 21:59:00,43.3,42.0,30.10,South,180,0.0,-999.0,96,-99.99,,,0.00,weatherlink.com 1.10,2013-02-15 03:59:00,
2013-02-14 22:14:00,42.9,42.0,30.10,South,180,0.0,-999.0,96,-99.99,,,0.00,weatherlink.com 1.10,2013-02-15 04:14:00,
2013-02-14 22:29:00,42.7,42.0,30.10,South,180,0.0,-999.0,97,-99.99,,,0.00,weatherlink.com 1.10,2013-02-15 04:29:00,
2013-02-14 22:44:00,42.4,42.0,30.10,South,180,0.0,-999.0,97,-99.99,,,0.00,weatherlink.com 1.10,2013-02-15 04:44:00,
2013-02-14 22:59:00,42.2,41.0,30.10,South,180,0.0,-999.0,97,-99.99,,,0.00,weatherlink.com 1.10,2013-02-15 04:59:00,
2013-02-14 23:14:00,42.0,41.0,30.11,South,180,0.0,-999.0,97,-99.99,,,0.00,weatherlink.com 1.10,2013-02-15 05:14:00,
2013-02-14 23:29:00,41.7,41.0,30.11,South,180,0.0,-999.0,97,-99.99,,,0.00,weatherlink.com 1.10,2013-02-15 05:29:00,
2013-02-14 23:44:00,41.5,41.0,30.11,South,180,0.0,-999.0,97,-99.99,,,0.00,weatherlink.com 1.10,2013-02-15 05:44:00,